Tracking 32991 objects as of 23-Jan-2026
HD Live streaming from Space Station
objects crossing your sky now

ONEWEB-0225

Track ONEWEB-0225 now!
10-day predictions
ONEWEB-0225 is classified as:


NORAD ID: 48799
Int'l Code: 2021-045AJ
Perigee: 1,208.0 km
Apogee: 1,209.8 km
Inclination: 87.9 °
Period: 109.5 minutes
Semi major axis: 7579 km
RCS: Unknown
Launch date: May 28, 2021
Source: United Kingdom (UK)
Launch site: VOSTOCHNY COSMODROME (VOSTO)
Your satellite tracking list
Your tracking list is empty




NASA's NSSDC Master Catalog

Two Line Element Set (TLE):
1 48799U 21045AJ  26022.48485953  .00000096  00000-0  22075-3 0  9991
2 48799  87.8998 288.2876 0001140  58.5634 301.5607 13.15549463225266
Source of the keplerian elements: AFSPC